Location: Angwan Shehu
(11.2514°N, 7.4613°E)
Time: 00:26:58
(UTC+00:00)

Cosmos 158 Rocket - Pass Details

Date: 14 November 2019
Orbit: 699 x 793 km, 74.0° (Epoch: 08 December)

Event Time Altitude Azimuth Distance (km) Brightness Sun altitude
Rises 17:41:20 0° 188° (S) 3,280 7.6 -9.8°
Reaches altitude 10° 17:43:44 10° 186° (S) 2,351 6.8 -10.3°
Maximum altitude 17:49:04 71° 102° (ESE) 832 4.0 -11.6°
Drops below altitude 10° 17:54:22 10° 19° (NNE) 2,329 6.2 -12.8°
Sets 17:56:44 0° 17° (NNE) 3,246 6.9 -13.4°
